Regional Weather Roundup
Issued by NWS Midland/Odessa, TX

Skip options and go directly to product.
Home | Oldest Version | Previous Version | Current Version | All | Graphics & Text | Save Text | Print | Product List | Glossary On

Skip product version selection by date and time.   
354
ASUS44 KMAF 210610
RWRMAF
MIDLAND AREA WEATHER ROUNDUP
NATIONAL WEATHER SERVICE MIDLAND TX
100 AM CDT TUE APR 21 2015

...IN SOUTHWEST TEXAS AND SOUTHEAST NEW MEXICO...

CITY           SKY/WX    TMP DP  RH WIND       PRES   REMARKS
ALPINE         FAIR      47  41  80 SW3       30.03S
ANDREWS        FAIR      56  40  56 S8        29.93F
ARTESIA        PTCLDY    54  41  62 SE8       29.93R
BIG SPRING     FAIR      59  37  45 SE6       29.96S
CARLSBAD       CLEAR     58  43  57 S9        29.90R
DRYDEN           N/A     55  42  61 NE7       29.94F
FORT STOCKTON  FAIR      56  40  55 S20G28    29.92F
GUAD PASS      CLEAR     56  37  49 NE10      30.00S
HOBBS          FAIR      55  41  58 S8        29.95R
MARFA          NOT AVBL
MIDLAND AIRPK  FAIR      60  36  39 S12G21    29.94F
MIDLAND INTL   FAIR      58  38  47 S14       29.94S
ODESSA         FAIR      58  38  47 S12       29.94F
PECOS          FAIR      57  43  59 E10       29.88F
PRESIDIO       FAIR      64  45  50 N15G21    29.90S
SEMINOLE       FAIR      51  40  66 S7        29.94S
SNYDER         FAIR     N/A N/A N/A SE10      29.95F
WINK           FAIR      58  39  49 SE13      29.89F
$$
...OTHER STATIONS IN TEXAS...

CITY           SKY/WX    TMP DP  RH WIND       PRES   REMARKS
ABILENE        FAIR      53  42  66 SE8       29.98R
AMARILLO       RAIN      49  44  83 E17       29.97F
AUSTIN         MOCLDY    54  52  93 CALM      29.99F
BROWNSVILLE    CLOUDY    69  66  90 NE5       29.96F
CORPUS CHRISTI MOCLDY    63  56  78 E3        29.98S
DALLAS FTW     FAIR      56  43  61 SE3       30.02R
DEL RIO        FAIR      63  46  54 SE10      29.96S
EL PASO        PTCLDY    68  24  19 CALM      29.89R
HOUSTON INT    CLOUDY    62  54  74 CALM      29.99F
LUBBOCK        MOCLDY    57  39  51 SE13      29.98R
SAN ANGELO     FAIR      53  44  71 E6        29.96S
SAN ANTONIO    CLOUDY    63  48  58 S6        30.01R
WACO           FAIR      50  47  89 CALM      30.02R
WICHITA FALLS  NOT AVBL
$$
...OTHER LOCATIONS IN NEW MEXICO...

CITY           SKY/WX    TMP DP  RH WIND       PRES   REMARKS
ALAMAGORDO     PTCLDY    66  25  20 W6        29.92R
ALBUQUERQUE    MOCLDY    58  23  26 VRB5      29.98R
CANNON AFB     PTCLDY    53  38  57 SE6       29.93R
CLOVIS         PTCLDY    54  36  50 SE7       29.94R
HOLLOMAN AFB   PTCLDY    59  26  27 NE7       29.89R
ROSWELL        MOCLDY    58  41  53 SE8       29.92S
RUIDOSO        MOCLDY    52  23  32 W7        30.06S
SANTA FE       MOCLDY    50  21  32 NE7       29.98S
TRUTH OR CONSE PTCLDY    55  21  26 NW10      29.93S
TUCUMCARI      PTCLDY    48  44  86 N12       29.93R
$$

USA.gov is the U.S. government's official web portal to all federal, state and local government web resources and services.